Howell, MI

9:09 PM EDT on March 28, 2017 (GMT -0400)
Livingston County

Weather History for KOZW - April, 2012

Change the Weather History Date:

Saturday, April 21, 2012

  Actual Average Record
Temperature  
Mean Temperature 42 °F -  
Max Temperature 48 °F 59 °F 77 °F (2006)
Min Temperature 35 °F 38 °F 24 °F (2013)
Degree Days  
Heating Degree Days 23    
Moisture  
Dew Point 31 °F    
Average Humidity 70    
Maximum Humidity 94    
Minimum Humidity 38    
Precipitation  
Precipitation 0.00 in - - ()
Sea Level Pressure  
Sea Level Pressure 29.96 in    
Wind  
Wind Speed 8 mph (North)    
Max Wind Speed 13 mph    
Max Gust Speed 22 mph    
Visibility 10 miles    
Events      
Averages and records for this station are not official NWS values.
T = Trace of Precipitation, MM = Missing Value Source: NWS Daily Summary

Daily Weather History Graph

Daily Weather History Graph

Search for Another Location

Airport or City:

Trip Planner

Search our weather history database for the weather conditions in past years. The results will help you decide how hot, cold, wet, or windy it might be!

Date:

Astronomy

Apr. 21, 2012 Rise Set
Actual Time 6:44 AM EDT 8:25 PM EDT
Civil Twilight 6:14 AM EDT 8:55 PM EDT
Nautical Twilight 5:38 AM EDT 9:31 PM EDT
Astronomical Twilight 4:59 AM EDT 10:10 PM EDT
Moon 6:38 AM EDT (4/21) 9:07 PM EDT (4/21)
Length of Visible Light 14h 40m
Length of Day
13h 40m
New Moon, 0% of the Moon is Illuminated
Apr 21
New Moon
Apr 29
First Quarter
May 5
Full
May 12
Last Quarter
May 20
New

Hourly Weather History & Observations

Time (EDT) Temp. Windchill Dew Point Humidity Pressure Visibility Wind Dir Wind Speed Gust Speed Precip Events Conditions
12:14 AM 37.4 °F 30.8 °F 35.6 °F 93% 29.90 in 10.0 mi North 9.2 mph 17.3 mph N/A   Overcast
12:34 AM 37.4 °F 31.4 °F 35.8 °F 94% 29.91 in 10.0 mi North 8.1 mph - N/A   Overcast
12:54 AM 37.4 °F 32.1 °F 35.8 °F 94% 29.90 in 10.0 mi NNE 6.9 mph - N/A   Overcast
1:15 AM 37.4 °F 30.8 °F 35.8 °F 94% 29.90 in 10.0 mi NNE 9.2 mph - N/A   Overcast
1:34 AM 37.6 °F 33.1 °F 35.8 °F 93% 29.91 in 10.0 mi North 5.8 mph - N/A   Overcast
1:54 AM 37.6 °F 33.1 °F 35.6 °F 93% 29.91 in 10.0 mi North 5.8 mph - N/A   Overcast
2:15 AM 37.6 °F 32.3 °F 35.2 °F 91% 29.92 in 10.0 mi North 6.9 mph - N/A   Overcast
2:34 AM 37.6 °F 31.0 °F 34.9 °F 90% 29.91 in 10.0 mi NNE 9.2 mph - N/A   Overcast
2:54 AM 37.6 °F 31.6 °F 34.7 °F 89% 29.91 in 10.0 mi NNE 8.1 mph - N/A   Overcast
3:15 AM 37.6 °F 31.6 °F 34.7 °F 89% 29.91 in 10.0 mi North 8.1 mph - N/A   Overcast
3:34 AM 37.6 °F 32.3 °F 34.5 °F 89% 29.91 in 10.0 mi North 6.9 mph - N/A   Overcast
3:54 AM 37.6 °F 31.0 °F 34.3 °F 88% 29.91 in 10.0 mi North 9.2 mph - N/A   Overcast
4:14 AM 37.6 °F 31.6 °F 34.2 °F 87% 29.92 in 10.0 mi North 8.1 mph - N/A   Overcast
4:34 AM 37.6 °F 31.6 °F 33.4 °F 85% 29.92 in 10.0 mi NNE 8.1 mph - N/A   Overcast
4:54 AM 37.4 °F 32.1 °F 33.1 °F 84% 29.92 in 10.0 mi North 6.9 mph - N/A   Overcast
5:14 AM 37.4 °F 32.1 °F 33.1 °F 84% 29.92 in 10.0 mi North 6.9 mph - N/A   Overcast
5:34 AM 37.2 °F 30.6 °F 33.1 °F 85% 29.92 in 10.0 mi North 9.2 mph - N/A   Overcast
5:55 AM 37.0 °F 31.6 °F 33.3 °F 86% 29.92 in 10.0 mi North 6.9 mph - N/A   Overcast
6:14 AM 36.9 °F 32.2 °F 33.3 °F 87% 29.93 in 10.0 mi North 5.8 mph - N/A   Overcast
6:34 AM 36.7 °F 32.0 °F 33.1 °F 87% 29.93 in 10.0 mi North 5.8 mph - N/A   Overcast
6:54 AM 36.5 °F 31.8 °F 32.9 °F 87% 29.92 in 10.0 mi NNW 5.8 mph - N/A   Overcast
7:14 AM 36.1 °F 30.6 °F 32.4 °F 86% 29.93 in 10.0 mi NNW 6.9 mph - N/A   Overcast
7:35 AM 36.5 °F 33.9 °F 32.4 °F 85% 29.95 in 10.0 mi North 3.5 mph - N/A   Overcast
7:54 AM 36.5 °F 31.0 °F 32.0 °F 84% 29.95 in 10.0 mi North 6.9 mph - N/A   Overcast
8:14 AM 36.5 °F 31.0 °F 32.0 °F 84% 29.96 in 10.0 mi North 6.9 mph - N/A   Overcast
8:35 AM 36.5 °F 29.2 °F 32.0 °F 84% 29.96 in 10.0 mi NNW 10.4 mph - N/A   Overcast
8:54 AM 36.5 °F 29.7 °F 31.8 °F 83% 29.96 in 10.0 mi North 9.2 mph - N/A   Overcast
9:14 AM 36.9 °F 30.7 °F 32.0 °F 83% 29.97 in 10.0 mi North 8.1 mph 17.3 mph N/A   Overcast
9:35 AM 37.4 °F 32.1 °F 32.0 °F 81% 29.98 in 10.0 mi North 6.9 mph - N/A   Overcast
9:54 AM 37.9 °F 30.5 °F 32.0 °F 79% 29.98 in 10.0 mi North 11.5 mph - N/A   Overcast
10:14 AM 38.7 °F 32.4 °F 32.0 °F 77% 29.98 in 10.0 mi North 9.2 mph - N/A   Overcast
10:34 AM 39.6 °F 34.0 °F 32.5 °F 76% 29.97 in 10.0 mi North 8.1 mph - N/A   Overcast
10:54 AM 39.7 °F 33.7 °F 32.0 °F 74% 29.97 in 10.0 mi North 9.2 mph 17.3 mph N/A   Overcast
11:14 AM 40.3 °F 36.3 °F 32.4 °F 73% 29.98 in 10.0 mi North 5.8 mph 16.1 mph N/A   Overcast
11:34 AM 41.5 °F 35.0 °F 33.1 °F 72% 29.98 in 10.0 mi North 11.5 mph 17.3 mph N/A   Overcast
11:54 AM 42.3 °F 36.3 °F 32.9 °F 69% 29.98 in 10.0 mi North 10.4 mph 18.4 mph N/A   Overcast
12:15 PM 43.3 °F 38.1 °F 33.8 °F 69% 29.98 in 10.0 mi North 9.2 mph - N/A   Mostly Cloudy
12:34 PM 43.0 °F 37.2 °F 32.2 °F 66% 29.98 in 10.0 mi NNE 10.4 mph - N/A   Overcast
12:54 PM 45.7 °F 40.2 °F 32.4 °F 60% 29.98 in 10.0 mi NNE 11.5 mph 18.4 mph N/A   Mostly Cloudy
1:15 PM 44.2 °F 38.8 °F 32.0 °F 62% 29.98 in 10.0 mi North 10.4 mph 16.1 mph N/A   Overcast
1:34 PM 46.9 °F - 33.1 °F 59% 29.98 in 10.0 mi North 11.5 mph 17.3 mph N/A   Mostly Cloudy
1:54 PM 45.5 °F 41.3 °F 31.1 °F 57% 29.98 in 10.0 mi NNE 8.1 mph 19.6 mph N/A   Mostly Cloudy
2:14 PM 45.5 °F 39.9 °F 30.7 °F 56% 29.99 in 10.0 mi NNE 11.5 mph 18.4 mph N/A   Mostly Cloudy
2:35 PM 46.6 °F - 31.8 °F 56% 29.98 in 10.0 mi North 10.4 mph 18.4 mph N/A   Mostly Cloudy
2:54 PM 46.9 °F - 31.5 °F 55% 29.98 in 10.0 mi NE 12.7 mph 21.9 mph N/A   Overcast
3:14 PM 46.4 °F 41.5 °F 31.1 °F 55% 29.98 in 10.0 mi North 10.4 mph 16.1 mph N/A   Overcast
3:35 PM 46.0 °F 41.0 °F 30.9 °F 56% 29.98 in 10.0 mi NE 10.4 mph 17.3 mph N/A   Overcast
3:54 PM 47.3 °F - 30.9 °F 53% 29.97 in 10.0 mi North 10.4 mph 18.4 mph N/A   Mostly Cloudy
4:14 PM 47.3 °F - 30.9 °F 53% 29.97 in 10.0 mi NNE 6.9 mph - N/A   Mostly Cloudy
4:34 PM 46.6 °F - 29.8 °F 52% 29.97 in 10.0 mi NNE 6.9 mph - N/A   Mostly Cloudy
4:54 PM 46.4 °F 42.4 °F 28.8 °F 50% 29.97 in 10.0 mi North 8.1 mph 16.1 mph N/A   Scattered Clouds
5:14 PM 47.8 °F - 27.9 °F 46% 29.97 in 10.0 mi North 8.1 mph - N/A   Clear
5:34 PM 48.0 °F - 27.5 °F 45% 29.97 in 10.0 mi North 10.4 mph 20.7 mph N/A   Clear
5:54 PM 47.5 °F - 25.5 °F 42% 29.98 in 10.0 mi North 8.1 mph - N/A   Clear
6:14 PM 47.3 °F - 24.4 °F 41% 29.98 in 10.0 mi North 6.9 mph - N/A   Clear
6:34 PM 46.6 °F - 23.7 °F 41% 29.99 in 10.0 mi North 8.1 mph - N/A   Clear
6:54 PM 46.2 °F 42.2 °F 21.7 °F 38% 29.98 in 10.0 mi North 8.1 mph - N/A   Clear
7:14 PM 45.5 °F 42.5 °F 22.8 °F 41% 29.98 in 10.0 mi NNE 5.8 mph - N/A   Clear
7:34 PM 45.0 °F 42.6 °F 23.4 °F 43% 29.98 in 10.0 mi NNE 4.6 mph - N/A   Clear
7:54 PM 44.2 °F 41.0 °F 23.7 °F 44% 29.98 in 10.0 mi North 5.8 mph - N/A   Clear
8:14 PM 43.2 °F 39.0 °F 22.5 °F 44% 29.99 in 10.0 mi NNE 6.9 mph - N/A   Clear
8:34 PM 42.6 °F - 23.5 °F 47% 29.99 in 10.0 mi Calm Calm - N/A   Clear
8:54 PM 40.5 °F 38.4 °F 25.3 °F 55% 30.00 in 10.0 mi NNW 3.5 mph - N/A   Clear
9:14 PM 40.3 °F 38.2 °F 26.4 °F 58% 30.01 in 10.0 mi North 3.5 mph - N/A   Clear
9:35 PM 39.6 °F 37.4 °F 26.6 °F 60% 30.02 in 10.0 mi North 3.5 mph - N/A   Clear
9:54 PM 39.0 °F 35.7 °F 26.6 °F 61% 30.03 in 10.0 mi North 4.6 mph - N/A   Clear
10:14 PM 38.3 °F 34.8 °F 27.3 °F 65% 30.04 in 10.0 mi North 4.6 mph - N/A   Clear
10:35 PM 37.4 °F 34.9 °F 27.7 °F 68% 30.04 in 10.0 mi NNE 3.5 mph - N/A   Clear
10:54 PM 36.9 °F 34.3 °F 27.9 °F 70% 30.04 in 10.0 mi NNE 3.5 mph - N/A   Clear
11:14 PM 36.1 °F 32.3 °F 27.5 °F 71% 30.04 in 10.0 mi NNE 4.6 mph - N/A   Clear
11:34 PM 35.6 °F 32.8 °F 27.9 °F 73% 30.03 in 10.0 mi NNE 3.5 mph - N/A   Clear